カタログに戻る

SL-8 R/B

運用中LEO
NORAD 4071·ROCKET BODY·🇷🇺 Russia

打ち上げ Aug 13, 1969 から Plesetsk Cosmodrome

Loading…

次のパス (今後24時間)

TLE

最新Source: Space-Track

元期: Sep 14, 2026, 14:57 UTC

1 04071U 69070B   26257.62346993  .00000303  00000-0  59864-4 0  9990
2 04071  74.0473 124.3375 0014386 308.6301  51.3579 14.66785784 31850

AllMySatでSL-8 R/Bをリアルタイム追跡

Download on the App Store